This demonstration page uses our WeatherBlox Daily Observations layout. Learn more.

Left ArrowRight Arrow

Hourly Observations for January 24, 2018

Temp ( °F °C ) Dew Point ( °F °C ) Humidity (%) Winds ( mph kmh ) Pressure ( in mb ) Visibility ( mi km ) Precip ( " mm )
12:53 am 00:53 Clear 33 0.6 2 -16.7 26 26 ENE 6 9 30.30 1026 10 16 0.00 0.00
1:53 am 01:53 Clear 32 0 3 -16.1 29 29 ENE 3 6 30.31 1027 10 16 0.00 0.00
2:53 am 02:53 Clear 25 -3.9 2 -16.7 37 37 N 6 9 30.33 1027 10 16 0.00 0.00
3:53 am 03:53 Clear 24 -4.4 2 -16.7 38 38 N 8 13 30.35 1028 10 16 0.00 0.00
4:53 am 04:53 Clear 21 -6.1 2 -16.7 43 43 N 7 11 30.36 1028 10 16 0.00 0.00
5:53 am 05:53 Clear 20 -6.7 2 -16.7 45 45 N 9 15 30.37 1029 10 16 0.00 0.00
6:53 am 06:53 Clear 19 -7.2 2 -16.7 47 47 N 8 13 30.41 1030 10 16 0.00 0.00
7:53 am 07:53 Sunny 20 -6.7 2 -16.7 45 45 NNW 7 11 30.43 1031 10 16 0.00 0.00
8:53 am 08:53 Sunny 29 -1.7 4 -15.6 34 34 N 7 11 30.43 1031 10 16 0.00 0.00
9:53 am 09:53 Sunny 39 3.9 7 -13.9 26 26 Calm 30.45 1031 10 16 0.00 0.00
10:53 am 10:53 Sunny 47 8.3 9 -12.8 21 21 VRB 3 6 30.44 1031 10 16 0.00 0.00
11:53 am 11:53 Sunny 53 11.7 13 -10.6 20 20 S 7 11 30.42 1030 10 16 0.00 0.00
12:53 pm 12:53 Sunny 55 12.8 11 -11.7 17 17 SE 7 11 30.38 1029 10 16 0.00 0.00
1:53 pm 13:53 Sunny 59 15 10 -12.2 14 14 VRB 7 11 30.33 1027 10 16 0.00 0.00
2:53 pm 14:53 Sunny 59 15 10 -12.2 14 14 SSE 9 15 30.32 1027 10 16 0.00 0.00
3:53 pm 15:53 Sunny 59 15 12 -11.1 15 15 S 6 9 30.31 1026 10 16 0.00 0.00
4:53 pm 16:53 Sunny 60 15.6 13 -10.6 16 16 SE 12 19 30.30 1026 10 16 0.00 0.00
5:53 pm 17:53 Sunny 57 13.9 12 -11.1 17 17 SSE 10 17 30.30 1026 10 16 0.00 0.00
6:53 pm 18:53 Clear 48 8.9 10 -12.2 21 21 SE 9 15 30.33 1027 10 16 0.00 0.00
7:53 pm 19:53 Clear 47 8.3 9 -12.8 21 21 SE 10 17 30.34 1027 10 16 0.00 0.00
8:53 pm 20:53 Clear 43 6.1 9 -12.8 25 25 SE 9 15 30.33 1027 10 16 0.00 0.00
9:53 pm 21:53 Clear 42 5.6 9 -12.8 25 25 SSE 9 15 30.32 1027 10 16 0.00 0.00
10:53 pm 22:53 Clear 38 3.3 9 -12.8 30 30 SSE 9 15 30.32 1027 10 16 0.00 0.00
11:53 pm 23:53 Clear 36 2.2 10 -12.2 34 34 SSE 7 11 30.31 1027 10 16 0.00 0.00

Powered by AerisWeather